DW9987 Weather Reports


Display with metric or nautical units.
time (UTC)temp
F
wind
direction
speed
MPH
gust
MPH
rain 1hr
in
rain 24hr
in
rain mn
in
humidity
%
barometer
mb
20260509213053 71 19 6.0 14.0 0.00 0.00 0.00 35 1004.8
20260509211543 72 306 4.0 13.0 0.00 0.00 0.00 35 1004.7
20260509210048 72 298 6.0 14.0 0.00 0.00 0.00 34 1004.7
20260509204541 72 25 5.0 16.0 0.00 0.00 0.00 33 1004.4
20260509203041 72 63 5.0 11.0 0.00 0.00 0.00 32 1004.3
20260509201541 72 18 2.0 9.0 0.00 0.00 0.00 32 1004.3
20260509200042 72 360 3.0 10.0 0.00 0.00 0.00 31 1004.3
20260509194552 72 333 3.0 15.0 0.00 0.00 0.00 30 1004.4
20260509193040 73 105 4.0 17.0 0.00 0.00 0.00 29 1004.3
20260509191539 74 355 5.0 13.0 0.00 0.00 0.00 30 1004.3
20260509190040 75 306 3.0 10.0 0.00 0.00 0.00 30 1004.3
20260509184536 74 30 4.0 13.0 0.00 0.00 0.00 31 1004.2
20260509183036 73 5 4.0 13.0 0.00 0.00 0.00 29 1004.4
20260509181534 75 296 3.0 14.0 0.00 0.00 0.00 32 1004.2
20260509180047 74 330 6.0 14.0 0.00 0.00 0.00 31 1004.1
20260509174530 74 277 4.0 15.0 0.00 0.00 0.00 32 1004.2
20260509173032 73 318 7.0 15.0 0.00 0.00 0.00 34 1004.4
20260509171534 73 348 3.0 8.0 0.00 0.00 0.00 41 1004.3
20260509170025 72 165 2.0 12.0 0.00 0.00 0.00 43 1004.3
20260509164520 72 334 1.0 7.0 0.00 0.00 0.00 47 1004.2
20260509163017 70 121 1.0 8.0 0.00 0.00 0.00 50 1004.4
20260509161513 68 234 3.0 10.0 0.00 0.00 0.00 56 1004.4
20260509160011 67 197 4.0 9.0 0.00 0.00 0.00 60 1004.5
20260509154508 67 24 2.0 8.0 0.00 0.00 0.00 63 1004.5
20260509153013 65 165 3.0 8.0 0.00 0.00 0.00 64 1004.6
20260509151502 65 69 1.0 7.0 0.00 0.00 0.00 68 1004.8
20260509150058 63 227 2.0 9.0 0.00 0.00 0.00 71 1004.8
20260509144555 63 88 1.0 7.0 0.00 0.00 0.00 73 1004.8
20260509143051 61 92 2.0 9.0 0.00 0.00 0.00 76 1004.7
20260509141548 60 170 3.0 8.0 0.00 0.00 0.00 77 1004.6
20260509140056 59 215 3.0 10.0 0.00 0.00 0.00 80 1004.6
20260509134541 59 345 1.0 7.0 0.00 0.00 0.00 82 1004.7
20260509133039 57 248 3.0 8.0 0.00 0.00 0.00 84 1004.5
20260509131535 56 321 2.0 8.0 0.00 0.00 0.00 87 1004.5
20260509130034 54 262 3.0 8.0 0.00 0.00 0.00 89 1004.7
20260509124532 53 204 4.0 14.0 0.00 0.00 0.00 89 1004.7
20260509123031 53 244 3.0 7.0 0.00 0.00 0.00 91 1004.5
20260509121531 53 246 1.0 6.0 0.00 0.00 0.00 91 1004.5
20260509120030 52 249 0.0 6.0 0.00 0.00 0.00 92 1004.5
20260509114534 52 232 2.0 8.0 0.00 0.00 0.00 93 1004.3
20260509113029 51 207 1.0 6.0 0.00 0.00 0.00 93 1004.2
20260509111528 51 241 0.0 3.0 0.00 0.00 0.00 93 1004.2
20260509110027 51 216 0.0 6.0 0.00 0.00 0.00 92 1004.2
20260509104526 51 196 3.0 7.0 0.00 0.00 0.00 92 1003.8
20260509103023 52 172 3.0 7.0 0.00 0.00 0.00 92 1003.7
20260509101520 52 189 3.0 7.0 0.00 0.00 0.00 92 1003.9
20260509100019 52 211 3.0 6.0 0.00 0.00 0.00 92 1003.9
20260509094517 52 189 1.0 6.0 0.00 0.00 0.00 92 1004.1
20260509093016 52 184 1.0 5.0 0.00 0.00 0.00 92 1004.2
20260509091515 52 189 1.0 6.0 0.00 0.00 0.00 92 1004.3
20260509090023 52 256 1.0 4.0 0.00 0.00 0.00 91 1004.4
20260509084512 53 210 1.0 4.0 0.00 0.00 0.00 91 1004.4
20260509083012 53 205 1.0 6.0 0.00 0.00 0.00 91 1004.6
20260509081512 53 194 0.0 6.0 0.00 0.00 0.00 90 1004.4
20260509080011 53 185 1.0 6.0 0.00 0.00 0.00 90 1004.5
20260509074510 53 229 2.0 6.0 0.00 0.00 0.00 89 1004.4
20260509073017 53 208 1.0 5.0 0.00 0.00 0.00 89 1004.5
20260509071504 53 264 1.0 5.0 0.00 0.00 0.00 88 1004.8
20260509070002 53 209 1.0 6.0 0.00 0.00 0.00 88 1005.0
20260509064601 53 234 1.0 7.0 0.00 0.00 0.00 87 1005.4
20260509063104 53 217 0.0 4.0 0.00 0.00 0.00 86 1005.4
20260509061556 54 240 1.0 7.0 0.00 0.00 0.00 85 1005.6
20260509060109 54 233 1.0 7.0 0.00 0.00 0.00 85 1005.6
20260509054552 54 238 1.0 6.0 0.00 0.00 0.00 85 1005.7
20260509053102 55 215 0.0 8.0 0.00 0.00 0.00 84 1005.9
20260509051551 55 198 2.0 8.0 0.00 0.00 0.00 84 1005.9
20260509050046 55 234 2.0 5.0 0.00 0.00 0.00 84 1005.8
20260509044545 55 203 1.0 9.0 0.00 0.00 0.00 83 1005.9
20260509043052 56 186 2.0 7.0 0.00 0.00 0.00 83 1005.9
20260509041545 56 200 2.0 6.0 0.00 0.00 0.00 82 1005.8
20260509040059 57 205 3.0 8.0 0.00 0.00 0.00 81 1005.8
20260509034544 57 225 2.0 7.0 0.00 0.00 0.00 80 1006.1
20260509033106 58 233 2.0 9.0 0.00 0.00 0.00 77 1006.2
20260509031542 58 202 2.0 7.0 0.00 0.00 0.00 74 1006.2
20260509030043 59 206 3.0 8.0 0.00 0.00 0.00 72 1006.3
20260509024552 59 201 4.0 9.0 0.00 0.00 0.00 69 1006.2
20260509023042 60 213 2.0 7.0 0.00 0.00 0.00 68 1006.2
20260509021541 60 194 2.0 8.0 0.00 0.00 0.00 68 1006.1
20260509020040 61 191 3.0 7.0 0.00 0.00 0.00 66 1006.0
20260509014540 61 186 2.0 7.0 0.00 0.00 0.00 59 1005.8
20260509013040 62 194 2.0 4.0 0.00 0.00 0.00 58 1005.8
20260509011544 62 194 1.0 5.0 0.00 0.00 0.00 56 1005.8
20260509010040 63 208 1.0 4.0 0.00 0.00 0.00 55 1005.8
20260509004537 64 205 2.0 5.0 0.00 0.00 0.00 53 1005.7
20260509003037 64 188 2.0 5.0 0.00 0.00 0.00 51 1005.9
20260509001537 65 196 1.0 6.0 0.00 0.00 0.00 50 1006.0
20260509000035 65 247 2.0 7.0 0.00 0.00 0.00 50 1005.9
20260508234534 65 204 1.0 11.0 0.00 0.00 0.00 49 1006.0
20260508233037 66 150 3.0 6.0 0.00 0.00 0.00 48 1006.1
20260508231533 67 172 3.0 8.0 0.00 0.00 0.00 46 1006.1
20260508230032 67 269 2.0 11.0 0.00 0.00 0.00 46 1006.0
20260508224533 67 264 1.0 8.0 0.00 0.00 0.00 44 1006.1
20260508223033 67 232 2.0 7.0 0.00 0.00 0.00 44 1006.2
20260508221532 67 190 1.0 7.0 0.00 0.00 0.00 45 1006.2
20260508220030 68 207 3.0 7.0 0.00 0.00 0.00 45 1006.2
20260508214532 67 230 3.0 10.0 0.00 0.00 0.00 46 1006.3